When you browse on this site, cookies collect data to enhance your experience and personalize the content and advertising you see.
Visit our Privacy Policy to learn more. By continuing to use the site, you agree to this use of cookies and data.
  • In Hungary
  • List of Countries
  • For 7 days
  • Water Temperature
  • Satellite Maps
  • Weather Map
  • News
  • Weather Widgets
  • user-avatar
    Login

    Hourly Weather Warburg

    Today, 25 April, Thursday

    Time Temperature Precipitation Wind Pressure Humidity
    00:00 +7°C° 0 mm 4 mps 735 mmHg 89%
    01:00 +7°C° 0 mm 1 mps 736 mmHg 91%
    02:00 +6°C° 0 mm 2 mps 736 mmHg 91%
    03:00 +6°C° 0 mm 2 mps 736 mmHg 91%
    04:00 +4°C° 0 mm 3 mps 736 mmHg 91%
    05:00 +7°C° 0 mm 3 mps 737 mmHg 87%
    06:00 +8°C° 0 mm 3 mps 737 mmHg 84%
    07:00 +9°C° 0 mm 3 mps 737 mmHg 76%
    08:00 +11°C° 0 mm 4 mps 737 mmHg 69%
    09:00 +14°C° 0 mm 4 mps 737 mmHg 62%
    10:00 +17°C° 0 mm 4 mps 738 mmHg 54%
    11:00 +18°C° 0 mm 4 mps 737 mmHg 52%
    12:00 +20°C° 0 mm 5 mps 737 mmHg 51%
    13:00 +20°C° 0 mm 3 mps 737 mmHg 51%
    14:00 +21°C° 0 mm 4 mps 737 mmHg 52%
    15:00 +21°C° 0 mm 4 mps 736 mmHg 52%
    16:00 +22°C° 0 mm 5 mps 736 mmHg 52%
    17:00 +21°C° 0 mm 4 mps 736 mmHg 58%
    18:00 +19°C° 0 mm 4 mps 735 mmHg 63%
    19:00 +18°C° 0 mm 3 mps 735 mmHg 68%
    20:00 +17°C° 0 mm 3 mps 735 mmHg 73%
    21:00 +14°C° 0 mm 3 mps 736 mmHg 77%
    22:00 +13°C° 0 mm 3 mps 736 mmHg 81%
    23:00 +12°C° 0.1 mm 3 mps 736 mmHg 87%

    Tomorrow, 26 April, Friday

    Time Temperature Precipitation Wind Pressure Humidity
    00:00 +12°C° 0.1 mm 2 mps 736 mmHg 92%
    01:00 +10°C° 0.1 mm 2 mps 736 mmHg 97%
    02:00 +10°C° 0 mm 2 mps 736 mmHg 97%
    03:00 +11°C° 0 mm 1 mps 737 mmHg 97%
    04:00 +11°C° 0 mm 1 mps 737 mmHg 97%
    05:00 +10°C° 0 mm 2 mps 737 mmHg 95%
    06:00 +10°C° 0 mm 3 mps 737 mmHg 94%
    07:00 +11°C° 0 mm 3 mps 737 mmHg 92%
    08:00 +11°C° 0.3 mm 4 mps 738 mmHg 90%
    09:00 +11°C° 0.3 mm 4 mps 738 mmHg 89%
    10:00 +11°C° 0.3 mm 4 mps 738 mmHg 88%
    11:00 +11°C° 1.2 mm 4 mps 738 mmHg 89%
    12:00 +11°C° 1.2 mm 4 mps 738 mmHg 90%
    13:00 +10°C° 1.2 mm 4 mps 739 mmHg 92%
    14:00 +10°C° 0.7 mm 4 mps 739 mmHg 92%
    15:00 +10°C° 0.7 mm 4 mps 739 mmHg 91%
    16:00 +10°C° 0.7 mm 3 mps 739 mmHg 91%
    17:00 +10°C° 0.4 mm 3 mps 739 mmHg 91%
    18:00 +10°C° 0.4 mm 3 mps 739 mmHg 91%
    19:00 +10°C° 0.4 mm 3 mps 739 mmHg 92%
    20:00 +9°C° 0.1 mm 2 mps 740 mmHg 91%
    21:00 +9°C° 0.1 mm 2 mps 740 mmHg 91%
    22:00 +8°C° 0.1 mm 2 mps 740 mmHg 91%
    23:00 +8°C° 0 mm 2 mps 740 mmHg 91%

    Day after tomorrow, 27 April, Saturday

    Time Temperature Precipitation Wind Pressure Humidity
    00:00 +8°C° 0 mm 2 mps 741 mmHg 91%
    01:00 +7°C° 0 mm 2 mps 741 mmHg 91%
    02:00 +7°C° 0 mm 2 mps 740 mmHg 91%
    03:00 +7°C° 0 mm 2 mps 740 mmHg 92%
    04:00 +7°C° 0 mm 2 mps 740 mmHg 92%
    05:00 +8°C° 0 mm 2 mps 740 mmHg 91%
    06:00 +8°C° 0 mm 3 mps 740 mmHg 90%
    07:00 +9°C° 0 mm 3 mps 740 mmHg 89%
    08:00 +10°C° 0.1 mm 4 mps 740 mmHg 83%
    09:00 +12°C° 0.1 mm 4 mps 740 mmHg 76%
    10:00 +13°C° 0.1 mm 5 mps 740 mmHg 70%
    11:00 +12°C° 0.7 mm 5 mps 739 mmHg 76%
    12:00 +10°C° 0.7 mm 5 mps 739 mmHg 83%
    13:00 +9°C° 0.7 mm 5 mps 739 mmHg 90%
    14:00 +10°C° 0.4 mm 4 mps 740 mmHg 86%
    15:00 +10°C° 0.4 mm 4 mps 740 mmHg 83%
    16:00 +10°C° 0.4 mm 4 mps 740 mmHg 79%
    17:00 +8°C° 0.3 mm 4 mps 740 mmHg 81%
    18:00 +8°C° 0.3 mm 3 mps 740 mmHg 84%
    19:00 +8°C° 0.3 mm 3 mps 741 mmHg 86%
    20:00 +7°C° 0.2 mm 3 mps 741 mmHg 88%
    21:00 +5°C° 0.2 mm 3 mps 741 mmHg 90%
    22:00 +5°C° 0.2 mm 3 mps 742 mmHg 92%
    23:00 +4°C° 0.3 mm 3 mps 742 mmHg 92%

    28 April, Sunday

    Time Temperature Precipitation Wind Pressure Humidity
    00:00 +4°C° 0.3 mm 3 mps 742 mmHg 92%
    01:00 +4°C° 0.3 mm 3 mps 742 mmHg 92%
    02:00 +3°C° 0 mm 3 mps 742 mmHg 93%
    03:00 +2°C° 0 mm 3 mps 742 mmHg 93%
    04:00 +2°C° 0 mm 3 mps 742 mmHg 94%
    05:00 +2°C° 0 mm 3 mps 742 mmHg 93%
    06:00 +3°C° 0 mm 3 mps 742 mmHg 91%
    07:00 +3°C° 0 mm 3 mps 742 mmHg 90%
    08:00 +5°C° 0.2 mm 3 mps 742 mmHg 85%
    09:00 +7°C° 0.2 mm 3 mps 743 mmHg 80%
    10:00 +8°C° 0.2 mm 3 mps 743 mmHg 75%
    11:00 +9°C° 0.5 mm 3 mps 743 mmHg 72%
    12:00 +10°C° 0.5 mm 2 mps 743 mmHg 68%
    13:00 +10°C° 0.5 mm 2 mps 742 mmHg 65%
    14:00 +10°C° 0.4 mm 2 mps 742 mmHg 66%
    15:00 +10°C° 0.4 mm 2 mps 742 mmHg 66%
    16:00 +10°C° 0.4 mm 2 mps 742 mmHg 67%
    17:00 +10°C° 0.1 mm 1 mps 742 mmHg 71%
    18:00 +10°C° 0.1 mm 1 mps 742 mmHg 74%
    19:00 +8°C° 0.1 mm 0 mps 742 mmHg 78%
    20:00 +6°C° 0 mm 0 mps 742 mmHg 82%
    21:00 +6°C° 0 mm 1 mps 743 mmHg 85%
    22:00 +5°C° 0 mm 1 mps 743 mmHg 88%
    23:00 +4°C° 0 mm 1 mps 744 mmHg 89%

    29 April, Monday

    Time Temperature Precipitation Wind Pressure Humidity
    00:00 +4°C° 0 mm 1 mps 744 mmHg 90%
    01:00 +4°C° 0 mm 1 mps 744 mmHg 91%
    02:00 +3°C° 0 mm 1 mps 744 mmHg 92%
    03:00 +3°C° 0 mm 1 mps 744 mmHg 92%
    04:00 +3°C° 0 mm 1 mps 744 mmHg 92%
    05:00 +4°C° 0 mm 1 mps 744 mmHg 89%
    06:00 +5°C° 0 mm 1 mps 745 mmHg 87%
    07:00 +6°C° 0 mm 1 mps 745 mmHg 84%
    08:00 +8°C° 0 mm 1 mps 745 mmHg 75%
    09:00 +10°C° 0 mm 1 mps 745 mmHg 65%
    10:00 +13°C° 0 mm 2 mps 745 mmHg 56%
    11:00 +14°C° 0 mm 2 mps 745 mmHg 53%
    12:00 +15°C° 0 mm 2 mps 745 mmHg 49%
    13:00 +16°C° 0 mm 2 mps 745 mmHg 46%
    14:00 +16°C° 0 mm 2 mps 745 mmHg 48%
    15:00 +15°C° 0 mm 2 mps 744 mmHg 51%
    16:00 +14°C° 0 mm 3 mps 744 mmHg 53%
    17:00 +14°C° 0 mm 2 mps 744 mmHg 60%
    18:00 +13°C° 0 mm 2 mps 744 mmHg 67%
    19:00 +12°C° 0 mm 2 mps 744 mmHg 74%
    20:00 +10°C° 0 mm 1 mps 744 mmHg 77%
    21:00 +9°C° 0 mm 1 mps 744 mmHg 81%
    22:00 +8°C° 0 mm 1 mps 744 mmHg 84%
    23:00 +8°C° 0 mm 1 mps 744 mmHg 84%

    30 April, Tuesday

    Time Temperature Precipitation Wind Pressure Humidity
    00:00 +8°C° 0 mm 1 mps 744 mmHg 84%
    01:00 +8°C° 0 mm 1 mps 744 mmHg 84%
    02:00 +8°C° 0 mm 1 mps 744 mmHg 86%
    03:00 +8°C° 0 mm 1 mps 744 mmHg 87%
    04:00 +8°C° 0 mm 1 mps 744 mmHg 88%
    05:00 +8°C° 0 mm 1 mps 744 mmHg 87%
    06:00 +9°C° 0 mm 1 mps 744 mmHg 86%
    07:00 +9°C° 0 mm 1 mps 744 mmHg 86%
    08:00 +10°C° 0 mm 1 mps 744 mmHg 82%
    09:00 +10°C° 0 mm 2 mps 744 mmHg 77%
    10:00 +12°C° 0 mm 2 mps 744 mmHg 73%
    11:00 +12°C° 0 mm 3 mps 744 mmHg 70%
    12:00 +13°C° 0 mm 3 mps 743 mmHg 67%
    13:00 +13°C° 0 mm 3 mps 743 mmHg 63%
    14:00 +14°C° 0.1 mm 3 mps 743 mmHg 65%
    15:00 +14°C° 0.1 mm 3 mps 743 mmHg 67%
    16:00 +15°C° 0.1 mm 2 mps 742 mmHg 69%
    17:00 +14°C° 0.1 mm 2 mps 742 mmHg 74%
    18:00 +13°C° 0.1 mm 2 mps 742 mmHg 78%
    19:00 +12°C° 0.1 mm 1 mps 742 mmHg 82%
    20:00 +10°C° 0 mm 1 mps 742 mmHg 85%
    21:00 +8°C° 0 mm 0 mps 742 mmHg 87%
    22:00 +6°C° 0 mm 0 mps 742 mmHg 90%
    23:00 +6°C° 0 mm 0 mps 742 mmHg 90%
    Show more